Theta_e
351 350 349 349 349 351 354 354 356 362 362 356 355 360 364 364 365 369 371 367 366 367 366 364 362 358 362 362 364 364 361 360 359 360 359 358 353 351 350 345 340 343 348 350 351 351 350 350 350 350 352 352 351 349 348 349 349 348 348 348 348 349 350 347 342 339 339 342 345 349 351 352 352 352 351 349 348 344 339 337 338 343 346 347 348 350 351 352 353 352 350 346 344 341 339 339 338
351 351 350 351 350 353 359 356 357 360 357 355 357 362 365 367 366 371 372 369 369 365 363 363 361 361 361 362 364 365 364 361 360 361 358 355 352 352 350 345 340 344 349 350 352 351 350 350 350 351 351 351 350 349 350 350 351 350 349 350 350 349 350 351 348 343 340 336 336 339 342 344 345 346 344 342 341 339 340 342 345 348 349 351 351 353 353 354 354 353 349 345 341 337 336 336 335
351 351 351 352 353 353 359 358 357 356 355 355 358 367 368 370 371 369 368 367 366 361 362 362 362 362 361 363 366 365 365 361 359 358 355 353 352 352 351 347 341 345 349 352 352 351 351 350 350 351 351 350 345 347 348 347 350 351 351 350 350 350 350 351 350 348 347 344 339 337 337 340 340 339 338 337 337 341 346 348 350 352 353 354 354 355 355 355 354 351 346 341 338 337 337 337 336
351 352 351 353 357 357 364 364 358 355 355 355 356 369 372 371 369 366 365 365 363 360 362 362 364 362 360 366 365 364 366 361 358 356 355 353 352 353 352 350 346 348 351 352 352 352 351 350 351 351 351 347 343 346 346 346 350 351 351 350 350 350 350 351 350 350 350 350 348 347 346 345 345 344 343 343 344 347 349 350 352 354 354 355 355 355 355 354 351 346 341 338 339 340 340 341 340
351 353 350 352 361 361 365 363 359 356 358 358 359 369 373 370 367 366 364 362 362 362 362 363 366 362 361 366 365 368 366 361 357 355 355 354 353 353 352 351 350 352 354 353 351 352 351 350 351 351 350 347 346 348 348 349 350 350 350 349 350 350 350 350 350 350 351 350 350 350 350 349 349 349 349 349 350 351 351 352 353 354 355 355 355 354 352 349 344 341 341 341 343 345 344 345 344
351 352 349 351 356 357 360 359 358 357 359 363 364 369 369 369 368 367 364 360 360 359 360 363 364 364 364 363 363 365 363 363 358 354 356 354 354 354 353 353 353 354 354 352 351 351 350 351 351 351 349 347 348 350 349 350 349 350 349 349 350 350 350 350 349 350 350 350 348 348 348 348 348 347 349 349 350 352 352 352 353 354 354 353 352 349 347 345 342 343 344 345 347 348 346 347 346
351 352 354 356 357 357 361 357 356 358 360 361 366 368 365 369 368 365 364 361 360 359 360 361 360 365 366 361 361 360 358 360 357 355 356 354 354 354 354 353 353 355 354 352 350 350 350 350 349 349 349 346 348 350 349 349 349 349 349 349 350 349 349 350 350 350 352 351 350 349 349 350 349 348 348 349 349 350 351 351 351 351 351 349 348 345 344 345 344 344 345 347 348 350 349 348 348
350 354 356 362 364 362 362 357 356 360 362 361 365 367 362 367 367 364 364 361 362 361 361 360 358 367 368 362 364 361 357 358 355 356 356 354 355 354 355 354 354 354 354 351 349 349 349 349 348 349 348 345 346 348 347 348 350 350 349 349 349 349 348 349 350 351 351 352 352 352 351 352 352 351 351 351 351 351 351 351 350 349 348 347 346 345 347 347 347 346 346 348 349 350 350 349 350
349 354 356 361 365 361 358 357 359 363 364 362 363 365 362 365 367 364 363 360 361 360 360 360 357 366 368 364 366 360 357 358 356 356 355 355 355 355 355 354 354 354 354 351 349 349 348 348 346 347 345 344 343 344 345 346 347 347 346 346 348 348 346 348 349 350 350 351 351 352 352 351 351 352 351 352 352 352 351 350 349 348 348 347 346 348 348 348 348 346 346 349 349 350 350 350 349
351 355 359 362 362 358 356 356 360 365 366 364 362 363 364 365 365 364 363 361 360 359 360 359 358 363 366 365 365 360 358 357 356 356 355 356 355 355 355 355 354 353 353 350 349 349 347 347 346 345 344 343 343 343 344 345 345 342 342 342 344 346 346 347 349 350 350 350 350 351 352 351 351 350 349 350 350 350 349 348 348 348 349 349 348 348 349 348 347 346 348 349 350 350 351 350 349
358 356 358 361 357 354 356 357 361 364 362 362 364 362 363 365 364 363 363 360 357 359 360 359 360 363 363 364 364 360 358 356 356 357 356 356 355 355 356 355 354 353 351 349 349 348 347 346 346 346 344 345 345 344 346 349 347 342 341 341 343 345 345 347 349 351 350 350 350 350 351 350 350 350 349 348 348 348 348 348 348 348 349 349 349 349 349 348 348 348 349 349 350 350 349 349 349
361 358 357 359 357 356 357 359 360 362 363 366 368 365 362 363 363 363 362 359 358 360 360 359 360 361 364 365 363 359 356 357 357 356 356 355 355 355 355 355 354 352 351 349 349 348 347 347 346 346 346 346 346 347 350 352 348 344 343 342 344 346 348 349 350 350 350 350 349 350 350 349 349 349 349 347 347 348 348 348 348 348 349 349 349 348 349 349 350 350 349 349 350 350 349 350 351
360 359 360 360 357 358 359 360 362 364 369 370 368 365 361 362 364 363 362 360 359 361 360 359 359 360 364 364 361 359 357 357 356 356 356 355 355 355 355 355 355 353 351 350 349 348 348 347 347 347 348 349 349 350 351 349 346 346 346 345 348 350 350 350 350 351 350 350 350 349 349 349 349 348 348 347 347 348 348 349 349 349 349 350 349 348 348 348 348 349 349 348 348 349 350 351 351
357 357 360 362 357 360 361 362 365 364 370 370 363 362 362 362 364 362 362 363 360 360 359 356 357 359 362 364 363 361 358 356 356 356 355 355 355 354 355 355 355 354 353 351 350 349 349 349 348 349 350 351 350 349 349 345 344 347 348 349 352 352 352 351 351 352 350 350 350 349 350 350 349 349 348 348 349 349 349 349 350 350 349 349 348 347 347 346 346 347 348 347 348 349 350 351 350
355 356 359 362 358 359 360 362 366 363 368 368 361 363 364 362 361 360 362 364 362 359 359 357 357 362 363 365 366 361 357 356 355 355 354 354 354 354 355 354 355 354 354 353 351 351 350 350 351 350 350 349 346 347 346 343 344 349 352 353 352 353 353 352 351 353 352 351 351 351 351 350 350 350 350 351 350 349 349 349 349 349 349 348 347 347 346 346 345 346 346 346 348 349 349 349 350
355 359 361 362 358 357 360 363 364 363 368 366 360 363 366 364 359 360 360 361 362 357 358 359 357 361 363 364 363 359 356 355 355 355 353 353 353 354 354 354 355 354 354 354 353 352 351 351 351 349 349 347 345 347 344 341 348 354 354 354 353 354 354 352 352 352 353 353 352 352 351 351 351 351 351 351 350 349 348 348 348 347 347 347 346 346 346 346 345 345 346 346 347 347 348 350 350
356 360 362 361 358 358 362 366 364 365 370 364 361 363 367 366 358 357 357 359 362 357 356 357 355 357 361 362 359 356 356 355 354 354 353 353 353 353 354 354 354 354 354 354 354 353 352 350 350 349 348 349 348 346 342 343 351 355 355 355 355 355 354 353 353 352 353 353 352 352 352 352 352 350 350 350 349 349 349 349 347 347 346 346 346 346 345 346 346 346 346 346 347 346 348 350 350
357 362 362 359 359 362 366 371 367 365 368 366 365 365 366 367 362 357 357 360 359 357 356 355 355 355 358 360 357 355 355 355 354 353 353 353 353 353 353 353 354 354 354 354 354 353 352 350 351 350 348 350 350 345 341 346 353 355 354 355 356 355 353 354 353 353 353 352 352 352 351 351 350 348 348 348 349 348 349 350 350 350 348 346 346 347 347 347 347 346 346 346 346 348 350 351 348
357 361 362 360 363 367 367 370 367 363 365 366 367 365 363 365 364 358 361 364 359 359 358 355 358 358 358 359 357 356 355 354 354 353 353 353 353 353 353 353 353 354 354 354 354 353 352 351 352 350 349 352 351 343 342 350 354 355 354 354 355 355 354 354 353 353 352 351 352 351 351 349 349 348 347 348 349 349 350 350 351 351 350 348 346 345 345 346 345 344 344 345 348 352 352 348 345
356 358 363 361 362 363 363 365 366 365 362 363 365 364 363 362 361 360 362 364 362 361 359 358 361 359 359 359 357 356 355 354 354 353 353 353 353 353 353 353 353 353 353 353 353 353 351 350 351 350 350 352 348 342 345 352 354 355 355 354 355 354 353 354 353 352 351 351 351 350 350 350 350 349 349 349 350 351 350 348 349 350 350 349 349 348 347 345 343 343 343 344 348 350 348 344 344
355 357 363 363 360 361 362 363 365 364 360 362 365 364 363 363 360 361 364 364 365 361 357 358 359 358 359 358 357 356 355 354 354 354 354 353 353 352 353 353 352 352 352 353 353 352 351 350 350 349 351 350 344 344 349 353 353 354 354 354 354 353 353 353 351 351 351 350 350 350 350 350 350 350 350 349 349 350 347 345 345 346 345 346 347 347 347 345 342 343 342 342 344 344 343 344 346
357 357 358 359 358 360 361 363 366 364 361 363 364 363 363 363 361 361 363 364 365 360 356 357 356 356 358 357 356 355 354 354 354 353 353 353 353 352 352 352 351 352 352 353 352 351 351 350 350 350 350 346 344 347 351 353 354 355 354 354 353 352 352 352 351 350 350 350 349 350 350 350 350 350 348 347 346 346 344 342 343 345 345 342 342 342 343 342 341 342 342 342 342 341 343 345 348
360 362 358 358 356 359 358 361 367 365 365 367 365 363 362 364 363 360 362 362 362 359 357 356 355 356 357 356 356 354 353 353 354 353 353 353 353 352 352 351 351 351 351 351 351 351 350 349 349 351 349 344 345 350 352 354 355 355 353 353 352 351 350 350 350 349 348 349 349 349 349 348 347 346 346 345 345 346 346 345 345 347 346 344 343 343 342 341 341 341 340 342 341 343 345 347 349
361 364 362 361 359 359 358 357 362 363 366 367 363 360 361 365 363 359 361 360 357 357 359 358 356 356 357 356 355 354 353 353 354 353 353 353 352 352 351 350 350 351 351 351 350 350 349 348 348 350 347 344 346 350 352 354 354 354 353 352 351 350 350 349 348 348 347 347 347 348 347 346 344 344 345 347 349 350 350 349 349 348 347 346 347 348 346 344 343 343 343 344 345 347 348 348 348
360 362 361 362 363 363 361 357 359 363 364 361 360 360 360 362 360 358 360 359 355 354 355 357 356 357 357 356 356 355 353 353 354 354 353 353 353 352 351 350 350 350 350 350 349 350 350 348 349 348 345 344 347 350 351 353 354 353 352 352 350 349 348 348 347 347 346 345 345 344 344 342 341 343 346 348 350 351 351 351 350 349 348 349 350 351 350 349 349 349 348 348 349 349 349 349 349
363 361 360 364 365 362 362 363 362 363 362 360 361 362 360 358 357 358 360 359 356 353 354 355 356 358 358 356 355 355 353 354 354 354 354 353 353 352 351 350 349 349 348 348 347 349 351 349 349 347 343 343 345 349 352 353 354 353 352 351 349 347 346 346 345 345 344 344 344 343 342 341 342 345 348 350 351 352 352 351 351 350 349 350 350 350 350 351 351 350 351 350 350 350 349 349 349
364 363 363 365 365 361 361 366 365 363 363 361 362 365 361 356 357 361 361 358 355 354 354 353 356 358 357 356 356 354 354 354 354 354 354 353 353 352 351 349 349 348 347 347 346 346 349 350 349 345 343 343 343 348 352 352 354 352 352 350 348 346 345 345 345 345 345 344 344 343 343 343 345 348 350 351 351 352 352 352 351 350 350 349 349 349 349 349 349 349 349 349 350 350 350 349 349
362 365 365 365 365 364 365 367 365 362 362 360 361 363 361 357 359 362 360 356 355 355 354 352 356 358 356 356 356 355 354 354 354 354 354 354 353 353 351 350 349 347 346 345 345 345 347 348 347 344 342 340 340 347 352 352 353 352 351 350 347 345 344 344 345 345 345 345 345 345 345 345 348 349 351 351 351 351 351 351 351 350 349 348 348 348 348 348 348 348 349 349 349 349 350 348 349
362 364 364 364 365 366 366 368 364 361 362 361 360 361 362 362 361 360 357 355 356 355 354 353 355 357 356 356 356 355 354 353 353 353 353 353 353 353 351 350 348 347 345 344 344 345 344 344 344 342 339 337 337 345 351 352 352 352 350 349 346 344 343 344 344 345 346 346 348 348 347 347 348 349 349 350 350 350 351 351 351 350 349 348 348 347 348 347 347 348 348 349 349 349 349 348 347
362 363 366 365 364 365 364 365 364 361 362 361 358 358 360 362 359 356 356 355 356 357 355 353 355 357 356 356 354 354 353 352 353 352 352 353 353 352 351 349 348 347 344 343 344 343 342 341 342 341 338 333 335 344 350 351 351 350 349 348 346 344 344 344 344 345 347 347 348 349 349 349 349 349 349 349 350 350 351 351 351 350 348 347 348 348 348 347 347 347 348 348 349 348 347 346 346
367 362 365 365 357 363 366 362 365 364 361 361 358 357 359 362 359 356 356 355 355 357 357 354 355 356 355 356 354 353 352 351 353 352 351 352 351 351 351 349 347 346 344 343 343 341 340 341 342 341 336 331 333 343 348 349 349 349 348 348 345 344 343 344 345 345 347 348 349 349 349 348 348 348 349 349 350 350 350 351 351 350 348 348 349 349 348 346 346 347 348 347 347 346 346 345 345
373 355 357 365 354 362 371 361 364 366 360 359 359 360 360 361 361 356 356 355 355 357 357 355 355 356 355 356 354 353 352 350 351 351 350 351 350 351 350 349 348 345 344 343 342 341 342 342 342 340 336 333 336 341 348 349 348 348 347 346 344 343 343 345 346 347 348 349 349 349 348 349 349 349 349 349 350 350 350 351 350 350 349 350 350 349 347 345 345 346 346 347 346 345 345 345 345
371 354 352 361 354 358 365 358 362 364 362 360 358 362 362 360 359 357 356 355 356 359 358 355 356 357 357 355 353 355 355 351 350 349 349 350 350 350 350 348 347 345 343 342 342 343 344 345 344 342 336 334 338 342 346 348 349 349 348 346 344 343 345 346 347 347 348 349 350 350 349 349 350 351 350 350 351 350 350 350 349 349 349 350 350 349 346 345 345 346 346 345 346 344 344 345 345
363 357 353 360 360 356 356 358 362 361 362 362 360 361 361 358 358 356 356 356 357 360 358 357 358 357 357 356 355 357 357 354 352 348 347 348 348 348 349 347 346 345 343 341 343 342 344 346 345 343 340 339 341 344 347 350 350 350 349 347 344 344 346 348 347 348 348 349 351 350 351 351 351 352 351 351 350 350 349 349 348 348 349 349 350 349 346 346 346 345 345 344 345 345 344 344 346
352 351 350 352 357 354 355 361 361 360 363 365 364 363 358 356 356 357 356 355 356 360 358 357 358 358 357 356 356 357 356 355 353 348 345 347 347 347 347 346 346 344 343 343 344 344 345 347 347 346 347 346 347 348 349 352 352 352 351 349 347 346 347 348 348 349 349 349 351 351 351 351 351 350 350 350 350 349 348 348 348 347 348 348 349 350 348 348 347 346 345 345 345 345 344 345 346
350 352 349 346 348 348 355 362 358 363 368 366 366 363 359 356 355 358 358 355 356 359 358 358 358 358 358 357 356 356 355 354 351 348 346 345 345 346 345 345 345 344 344 345 346 347 348 350 351 351 351 351 351 352 353 354 354 354 353 352 351 347 347 348 349 349 350 350 350 351 351 350 351 350 349 350 349 349 348 346 347 347 347 347 348 349 348 349 348 348 346 344 345 345 345 346 346
353 353 349 347 346 345 355 366 358 359 367 365 364 362 360 357 355 357 357 356 357 357 358 358 358 357 357 356 356 355 354 353 350 348 346 345 345 344 344 344 344 343 344 345 346 348 349 351 353 353 353 353 353 353 355 354 355 355 355 355 352 348 346 348 349 349 350 350 350 350 351 350 349 349 349 349 348 348 347 346 346 346 347 347 348 349 348 349 348 348 347 345 344 345 345 346 346
353 351 349 347 345 346 356 364 357 354 359 361 363 362 359 359 357 356 356 357 358 358 357 357 357 356 355 356 356 355 353 351 349 348 346 344 344 342 342 343 342 343 343 344 346 348 349 351 352 353 353 353 354 354 354 354 354 353 354 353 350 347 348 348 349 349 350 350 350 350 349 349 348 347 347 347 347 347 346 346 345 345 345 346 348 349 349 349 349 348 347 346 344 344 344 345 347
351 350 349 344 345 352 355 358 361 360 357 358 361 363 360 359 359 356 356 358 357 358 358 359 358 355 355 355 355 354 351 351 349 349 346 342 343 341 341 342 342 342 343 344 346 347 350 351 352 353 353 354 354 353 353 353 352 352 352 350 348 347 348 349 350 349 351 351 350 349 348 348 346 345 344 345 346 344 345 344 343 343 344 344 345 347 348 348 348 346 346 346 344 343 342 343 345
349 348 344 341 344 349 346 353 367 366 358 359 365 366 362 360 359 357 356 355 356 356 356 359 359 357 355 354 354 354 351 351 349 349 347 341 340 341 340 341 342 342 343 345 346 347 349 350 352 353 353 354 353 353 352 351 351 351 351 351 350 349 349 351 351 350 351 350 349 347 346 345 345 344 342 343 343 342 342 342 341 341 341 342 344 344 344 344 344 344 343 343 342 340 341 343 345
348 348 342 341 343 345 349 356 367 367 359 360 363 362 360 360 362 362 356 352 355 355 355 359 359 357 356 353 351 353 351 350 349 349 348 341 338 339 340 341 341 341 342 344 346 347 349 350 351 352 353 353 353 352 351 351 352 352 352 353 352 351 351 350 351 350 350 348 347 346 344 343 343 343 342 342 342 341 341 341 340 340 339 340 341 342 343 343 345 345 344 345 343 341 341 343 345
343 345 345 345 343 348 363 364 361 360 356 358 355 349 352 360 365 363 359 355 355 356 357 359 359 356 355 354 352 351 351 350 349 349 347 341 337 339 339 340 341 341 342 344 345 346 348 349 350 351 353 353 352 351 351 350 352 352 353 353 352 350 349 349 350 350 348 346 345 342 342 342 341 341 342 343 343 342 341 341 340 340 340 340 340 341 342 345 347 346 345 345 344 342 344 346 346
338 344 348 349 345 351 366 361 351 352 351 355 354 347 348 357 364 365 360 357 356 356 358 359 358 355 353 353 352 352 351 349 348 348 347 340 336 338 339 340 340 341 342 343 345 346 348 348 349 351 352 352 352 351 350 350 351 351 352 351 351 350 350 349 349 348 345 343 342 341 341 340 341 341 343 345 344 341 340 340 341 341 341 342 341 342 344 346 347 346 346 346 344 344 345 347 347
339 348 351 351 350 355 361 355 354 358 353 353 358 354 352 354 360 366 360 358 359 357 358 358 356 353 352 351 351 352 351 349 346 345 345 340 336 337 338 340 340 341 341 341 344 346 347 348 349 350 351 351 351 350 350 350 350 351 350 350 350 350 350 348 346 344 343 342 342 341 340 340 341 342 344 344 341 339 339 341 341 341 342 343 342 343 346 347 348 347 347 347 346 347 347 347 347
345 353 354 353 352 356 358 357 364 364 350 349 357 353 352 354 358 362 360 357 360 361 360 359 354 351 352 351 350 350 351 350 345 341 342 339 335 336 338 339 340 340 341 341 343 345 346 348 348 349 351 350 350 350 349 349 349 348 348 348 349 349 349 347 345 343 342 341 342 341 341 342 343 343 342 340 338 339 340 342 342 343 343 344 343 345 346 347 348 348 348 348 348 348 348 348 348
344 349 355 354 355 358 360 363 365 358 347 348 353 350 348 353 357 360 358 355 357 363 364 358 352 350 351 351 350 350 350 351 345 340 338 336 335 336 337 338 339 340 340 341 341 343 345 347 348 348 349 350 349 349 348 349 348 348 346 346 347 348 348 347 346 344 342 341 342 341 341 343 344 343 340 338 339 342 343 343 343 344 343 344 344 346 347 348 348 348 348 348 349 348 349 349 349
344 352 356 350 357 364 368 371 360 348 349 349 348 350 346 346 354 358 355 352 353 360 363 359 353 351 350 351 350 348 349 351 347 340 336 333 333 335 337 338 339 339 340 340 340 342 344 346 347 348 348 349 349 348 349 349 348 348 347 346 346 346 347 347 346 342 341 341 341 342 342 344 343 342 342 341 341 342 343 343 344 344 344 344 346 346 347 347 347 348 349 348 349 349 349 349 349
355 361 355 344 351 356 356 362 352 345 350 347 346 351 345 342 352 357 355 350 348 353 357 359 355 352 350 349 349 348 348 350 347 342 335 334 333 333 336 337 338 339 339 339 339 340 342 344 345 346 347 348 348 348 348 348 348 347 346 345 345 346 346 346 344 340 340 340 341 342 343 343 343 341 341 342 342 341 340 339 341 342 344 344 344 345 346 346 347 347 348 349 348 349 349 350 349
359 357 352 343 345 347 346 350 349 349 349 344 348 350 344 346 353 357 358 350 346 346 349 354 353 350 349 348 348 347 347 348 347 342 336 334 335 333 334 336 337 338 338 339 340 339 341 342 344 344 345 346 346 347 347 347 347 346 346 346 344 345 346 345 343 339 338 340 342 343 343 343 342 341 339 341 342 341 339 340 342 342 343 344 344 345 346 346 347 347 348 349 349 349 349 349 349
353 348 345 341 345 344 344 350 345 340 341 342 351 350 344 345 345 351 360 351 347 344 344 351 350 347 347 347 347 346 348 349 348 345 337 334 335 332 332 335 336 337 337 337 338 339 340 341 343 343 344 345 345 346 346 346 346 345 345 345 344 344 345 345 343 341 339 340 342 343 342 342 341 340 339 339 339 339 342 343 343 342 341 342 343 344 345 346 346 348 348 349 349 349 349 349 349
350 350 341 336 346 340 334 344 340 332 337 341 345 348 346 340 336 348 356 348 347 343 343 350 348 346 346 346 347 347 348 349 348 345 338 335 334 331 331 334 335 336 336 337 337 338 340 340 341 343 342 344 344 344 345 345 345 345 344 344 344 344 344 345 344 341 340 339 341 341 341 340 340 340 340 339 339 341 343 343 341 342 343 344 345 346 346 346 347 348 348 349 349 349 349 350 350
336 341 334 329 342 341 329 337 344 339 340 343 344 348 354 346 339 350 351 347 349 343 343 347 345 346 346 345 347 346 347 348 348 345 339 335 333 331 331 332 334 335 335 336 336 337 339 339 341 341 342 343 343 344 344 344 344 344 344 344 344 344 345 344 344 342 341 339 340 340 340 341 341 342 342 341 341 341 342 343 346 350 353 351 350 348 347 347 347 347 347 348 348 349 350 350 351
331 329 330 331 339 348 335 331 342 340 333 341 343 340 346 344 338 348 352 349 349 344 343 345 344 345 345 345 346 345 346 348 348 345 339 336 333 331 332 331 333 334 333 335 335 336 338 339 340 341 342 342 343 343 343 343 343 344 343 344 344 344 344 344 344 343 342 339 339 340 341 342 343 344 343 341 342 343 347 353 356 359 358 355 352 350 349 349 349 348 349 349 349 350 351 351 352
333 326 333 337 334 345 342 331 340 340 334 343 343 334 338 337 332 346 358 354 349 346 345 344 345 346 344 345 345 345 347 347 348 346 339 337 334 331 332 331 332 334 334 334 335 336 337 338 340 340 341 342 342 343 343 342 343 342 343 343 343 343 343 344 344 343 342 341 340 342 343 345 345 345 346 347 350 354 357 359 359 357 356 354 353 352 351 351 351 350 351 351 350 350 350 350 350
333 334 339 335 328 334 335 331 337 336 333 342 343 336 336 335 338 347 357 357 353 348 347 344 346 346 345 345 344 345 348 348 348 346 340 337 335 332 332 331 332 333 333 334 334 336 336 337 339 339 340 342 341 341 342 342 343 342 343 343 342 344 344 343 344 343 343 342 342 344 346 346 347 349 352 355 357 358 358 357 356 354 354 353 353 353 353 353 352 351 350 348 348 348 348 346 344
331 335 337 337 340 340 333 332 334 334 336 340 339 335 336 343 353 351 351 359 356 350 349 347 346 347 346 344 345 346 348 348 348 345 341 338 335 333 333 332 333 332 333 334 333 335 336 336 338 339 340 340 341 341 341 342 342 342 342 343 343 343 343 344 344 344 345 345 345 346 346 348 350 354 357 357 358 357 356 355 354 353 353 352 352 352 352 351 350 348 345 342 341 340 340 338 337
327 328 327 332 340 338 333 334 333 335 342 341 337 335 341 355 362 352 352 357 353 351 351 348 347 347 346 346 345 346 348 347 347 346 342 340 336 334 334 333 333 333 334 335 334 335 336 336 338 338 339 340 340 341 340 342 342 342 343 343 342 344 344 345 346 346 346 346 346 347 348 352 355 356 357 357 357 356 355 353 352 351 351 350 349 348 347 345 343 342 338 336 335 334 333 333 332
334 329 327 335 341 336 333 334 336 337 338 341 338 332 340 358 358 354 357 354 351 353 351 348 350 347 347 348 347 347 349 347 347 346 343 340 339 336 334 334 334 334 335 335 334 335 335 335 336 338 339 339 339 340 341 341 341 341 342 342 343 343 343 345 345 345 345 346 348 350 353 356 357 357 357 356 356 355 353 351 350 348 347 345 344 343 341 339 338 336 334 332 331 329 328 329 329
Wind_Speed
19 19 18 17 14 10 2 1 1 1 2 1 2 1 2 1 1 1 2 1 0 0 2 3 5 5 4 1 3 2 3 6 4 4 3 3 4 23 31 33 38 35 32 29 26 25 23 23 22 21 20 18 18 18 18 17 16 16 16 15 15 15 16 16 17 17 18 18 18 17 16 15 14 14 14 13 13 13 13 11 9 8 7 6 6 5 5 4 4 3 3 3 2 2 2 3 3
19 19 17 14 9 4 1 1 2 2 2 2 2 2 1 1 1 2 3 3 1 1 3 4 4 2 2 2 1 1 1 1 0 2 0 5 12 20 27 35 39 36 33 30 28 26 24 23 22 22 20 18 19 18 18 17 16 16 15 15 15 14 15 15 15 15 15 15 16 16 16 15 15 14 14 13 13 13 11 9 8 7 7 6 6 5 4 4 3 3 2 3 3 3 4 5 5
21 17 13 9 3 1 1 2 2 1 1 2 3 2 1 1 2 3 3 2 1 1 4 4 3 0 1 2 1 1 2 1 2 3 3 11 14 17 27 34 38 36 34 31 28 27 25 24 23 22 20 19 19 19 18 18 17 15 15 14 15 15 15 14 14 14 14 13 13 13 13 13 13 13 13 13 12 11 10 9 8 8 7 6 6 5 4 3 3 3 3 3 4 4 5 5 5
19 12 6 3 1 2 2 2 1 1 1 2 2 3 1 1 3 1 2 1 2 1 2 3 2 0 0 2 0 1 2 1 3 4 5 10 12 22 30 32 36 35 32 31 29 27 26 25 23 22 20 18 18 18 17 16 16 15 15 14 14 14 15 15 14 14 13 13 12 12 11 11 11 11 11 11 11 10 10 9 9 8 7 6 5 4 3 3 4 4 4 4 4 4 5 5 5
15 7 3 2 2 1 1 1 1 1 2 2 1 3 2 2 2 0 1 1 2 2 2 1 1 1 0 1 0 1 2 2 3 5 9 11 15 28 31 32 35 33 32 31 29 28 26 25 23 22 20 19 18 17 16 15 14 14 14 14 13 13 14 14 14 14 13 12 12 12 11 11 11 11 10 10 10 9 9 9 8 7 6 5 4 4 4 5 5 5 5 4 4 5 5 5 5
10 4 3 3 2 1 1 0 1 2 4 4 2 4 2 1 1 1 1 2 1 3 3 2 1 1 1 1 1 2 3 4 4 7 12 17 23 29 31 33 34 31 31 30 29 28 27 25 23 22 20 19 18 16 15 14 13 13 13 13 12 12 13 13 13 13 13 12 12 12 11 11 11 10 10 10 10 9 9 8 7 6 5 5 5 5 6 6 6 5 4 4 4 5 5 6 5
6 1 2 4 1 0 2 1 3 2 4 4 3 3 2 0 1 1 2 2 1 2 2 2 2 0 0 1 1 1 1 4 6 11 17 24 29 29 31 33 32 31 30 30 30 28 27 25 24 22 20 19 18 16 15 14 13 12 12 12 12 11 12 12 12 12 12 12 11 11 11 10 10 10 10 9 9 8 8 7 6 6 6 6 6 6 6 6 5 5 4 4 4 5 6 6 6
2 1 1 2 1 2 2 3 3 3 4 4 4 3 2 2 2 1 2 1 1 1 3 2 3 1 1 1 1 2 3 6 11 16 22 29 32 31 31 32 32 30 29 30 29 27 26 25 23 21 20 19 17 16 14 13 12 12 12 11 11 11 11 11 12 12 12 11 11 10 10 10 10 9 9 9 8 7 7 6 6 6 6 6 6 6 5 5 5 4 5 5 5 6 6 6 6
3 3 1 2 1 1 1 3 4 3 4 4 4 4 2 3 3 3 2 1 1 1 2 2 3 1 1 2 3 1 5 12 18 22 26 31 32 31 30 31 32 31 29 30 29 27 26 24 23 21 20 18 17 16 15 14 13 13 13 11 10 10 11 11 11 11 12 11 11 10 10 10 9 9 8 8 7 7 6 6 6 6 6 6 6 6 5 5 5 5 6 6 6 6 7 7 7
4 3 1 1 1 1 2 2 3 3 4 4 4 4 2 3 4 4 4 1 2 2 2 3 1 2 0 3 2 1 8 19 24 24 27 30 30 30 28 29 31 31 30 30 29 27 26 24 22 21 20 19 18 17 15 13 13 14 14 12 11 10 10 10 10 11 11 11 11 11 10 10 9 8 8 8 7 7 7 6 6 6 6 5 5 6 6 6 6 6 6 6 7 7 7 8 8
2 2 1 1 1 1 2 3 4 4 4 4 4 3 2 3 3 4 5 3 3 3 1 3 2 3 1 3 1 4 13 20 25 25 28 29 28 28 27 27 29 30 30 30 29 27 25 23 22 21 20 19 18 16 14 11 11 13 13 13 12 11 11 10 11 10 10 10 10 11 10 10 9 8 8 8 7 7 7 6 6 6 6 5 6 6 6 6 7 7 7 7 7 8 8 8 8
2 1 2 1 1 1 2 3 4 6 6 4 3 2 2 4 4 4 7 5 2 2 3 2 1 0 2 2 1 7 13 16 22 26 28 28 27 27 26 26 27 28 29 29 28 26 25 23 22 20 19 18 16 15 13 10 11 11 12 12 12 12 11 11 11 10 10 10 10 10 10 9 9 8 8 8 7 7 6 6 6 6 6 6 6 6 7 7 7 7 8 8 8 8 8 9 8
2 1 2 0 1 1 2 2 4 5 5 3 2 1 2 4 3 3 6 6 6 4 3 4 1 2 1 1 3 7 9 14 22 26 27 27 26 26 25 24 25 26 27 28 27 26 25 23 21 19 18 16 14 13 12 12 11 11 12 13 13 12 12 11 11 10 10 10 10 10 9 9 9 8 8 7 7 7 6 6 6 6 6 7 7 7 8 8 8 8 8 8 8 9 9 9 9
1 1 2 0 1 1 2 2 2 2 3 3 2 1 1 2 3 3 5 5 4 4 2 3 2 2 1 1 4 4 8 16 23 24 25 27 27 25 24 23 23 24 25 26 27 25 25 23 21 19 17 15 14 13 12 13 12 12 13 13 13 12 12 11 11 10 10 10 10 9 9 9 8 8 7 7 7 7 7 7 7 7 7 8 8 8 9 9 9 9 9 9 9 9 9 10 10
2 1 1 1 2 2 1 3 1 1 3 3 1 2 1 1 3 3 4 4 3 3 2 2 2 3 3 4 4 5 11 21 24 24 25 26 25 23 23 23 22 23 24 24 26 25 24 22 21 19 17 16 15 14 13 13 13 13 14 13 13 13 11 11 11 10 9 9 9 9 8 8 8 7 7 7 7 7 7 8 8 8 8 8 9 9 9 9 9 9 9 9 9 10 10 10 10
2 1 1 1 2 2 2 3 1 1 3 2 1 1 1 2 1 3 1 3 3 2 1 1 1 2 4 3 5 12 19 22 23 24 25 25 24 23 22 22 21 22 22 23 24 24 24 22 21 19 17 17 17 15 14 14 14 13 13 13 13 12 11 11 11 10 9 8 8 8 8 7 7 7 7 7 7 7 7 8 9 9 9 9 9 9 9 9 9 9 9 10 10 11 11 10 11
1 1 0 2 1 2 2 3 2 2 3 1 2 1 1 2 1 2 1 3 4 3 2 1 1 0 2 5 13 23 25 23 24 25 23 22 23 22 20 21 21 21 21 22 23 23 23 22 21 20 19 18 17 15 15 16 14 12 13 12 12 11 11 11 10 10 9 9 8 8 8 8 8 8 8 8 8 7 7 8 9 9 9 9 9 9 9 10 10 10 11 11 11 12 11 12 12
0 1 1 2 2 3 4 5 4 3 2 1 3 3 2 1 1 2 2 3 4 5 3 1 3 3 2 13 23 26 27 24 24 24 21 19 20 19 19 20 21 21 22 22 22 22 23 22 21 21 20 18 17 16 16 16 14 13 13 12 12 12 11 11 10 10 10 9 9 8 9 9 9 9 8 8 8 7 7 7 8 8 9 9 9 10 10 11 11 11 12 12 12 12 13 13 14
1 1 1 2 4 4 4 4 4 3 3 2 3 3 3 3 2 3 1 4 5 5 3 1 4 5 5 15 23 24 26 24 21 22 21 20 20 19 18 19 21 21 22 23 22 22 22 22 21 21 21 19 18 17 17 16 14 14 14 13 12 13 12 11 11 11 11 10 10 9 10 10 9 9 8 8 8 7 8 8 8 8 9 10 10 11 12 12 12 12 13 13 13 13 14 15 15
2 1 2 5 5 5 4 5 5 5 3 1 1 2 3 3 3 3 1 5 7 6 6 5 5 8 9 13 18 20 23 23 21 20 21 21 21 20 18 19 21 21 23 24 23 22 22 21 21 21 21 20 18 18 18 16 15 15 14 14 14 14 13 13 12 12 12 11 11 10 10 10 9 9 9 9 8 8 9 9 9 9 10 10 11 12 13 13 13 13 13 14 14 14 15 15 15
2 3 5 5 3 3 6 6 6 5 3 2 2 1 3 2 4 3 3 5 6 7 8 9 10 12 13 13 14 17 19 20 20 20 20 21 21 20 18 19 21 22 22 23 23 22 21 21 21 22 21 20 20 20 18 17 16 16 16 16 15 15 14 14 13 13 13 12 11 11 11 10 10 10 9 10 10 10 11 10 10 10 11 11 11 13 14 13 13 14 14 14 14 15 15 15 16
2 6 7 7 3 4 7 4 4 3 3 3 2 2 3 1 4 4 5 5 3 5 9 9 11 14 15 15 13 15 17 17 18 19 19 21 21 19 18 19 20 21 22 23 23 22 21 21 21 22 22 21 21 20 18 17 17 17 17 17 16 16 15 15 14 14 13 12 12 12 12 11 11 10 10 10 11 11 11 11 10 10 10 11 11 12 13 13 13 13 14 15 15 15 16 16 16
2 5 6 8 6 6 7 2 3 4 4 4 3 3 2 2 1 4 7 5 2 4 5 7 8 13 17 16 14 15 16 15 16 19 20 21 20 19 20 21 22 22 23 23 23 22 21 21 22 22 22 23 22 20 19 18 18 18 18 18 17 16 16 16 15 14 14 13 13 13 13 12 11 11 10 11 11 11 11 11 10 10 11 11 10 12 13 13 13 14 14 15 15 15 16 16 17
4 5 5 7 7 8 8 4 3 4 5 5 3 2 3 4 1 2 5 3 4 3 2 5 6 11 16 16 15 15 16 16 17 20 21 22 22 22 22 22 23 23 23 24 23 23 22 22 23 23 23 24 23 21 20 20 20 19 19 18 18 17 17 17 16 15 14 14 14 13 13 13 12 11 11 11 11 11 11 11 11 11 11 11 10 12 13 13 13 14 14 15 15 15 16 17 18
6 7 7 5 5 8 8 6 4 5 5 3 3 2 3 4 2 2 4 4 6 4 5 6 7 9 12 15 16 15 15 16 17 20 20 19 21 21 22 22 23 23 24 25 25 23 23 23 23 23 24 25 23 22 21 21 22 21 20 20 19 19 18 17 16 15 15 14 14 13 13 13 12 12 12 11 11 11 11 11 12 12 12 12 11 12 13 13 14 14 15 15 15 16 17 17 18
7 9 7 5 7 8 6 5 4 4 3 3 3 4 3 3 1 1 3 5 8 8 7 8 9 10 11 12 15 15 15 16 17 19 19 18 19 19 20 21 22 24 25 26 26 24 23 23 23 24 25 25 24 23 22 22 22 22 22 21 20 20 19 18 17 16 15 14 14 13 13 13 13 12 12 11 11 11 11 12 13 13 14 13 13 13 13 14 15 16 16 17 17 18 18 18 18
5 7 6 7 10 8 5 4 2 3 4 5 4 4 1 4 4 1 1 6 9 10 10 11 11 12 12 11 12 13 14 16 19 19 17 17 18 19 19 20 22 23 24 26 26 25 24 24 24 25 25 25 24 24 24 24 23 23 23 22 21 21 20 18 17 16 15 15 14 13 13 13 13 13 12 11 11 12 12 13 13 14 15 14 14 15 15 16 17 18 18 19 19 19 19 19 19
3 4 6 8 7 6 4 3 2 3 3 4 5 3 1 4 4 2 3 7 9 12 13 13 11 11 12 11 11 11 11 16 20 19 17 17 19 20 20 22 23 23 25 27 27 26 25 25 25 25 25 24 24 25 24 24 24 23 23 23 22 20 20 19 18 16 16 15 14 13 13 14 14 14 13 13 13 13 13 14 14 15 15 15 15 15 16 17 18 19 19 19 19 19 19 19 19
3 2 6 9 5 5 3 1 1 3 2 2 5 1 3 3 2 3 6 7 8 11 14 14 12 10 11 11 10 9 10 15 18 17 18 20 21 22 23 24 25 25 26 27 26 26 26 26 26 25 25 24 25 25 25 25 24 24 23 23 22 20 20 19 18 17 16 15 15 14 14 15 15 15 15 14 14 15 15 15 16 16 16 15 16 16 17 18 19 19 19 18 18 18 19 19 19
4 1 2 6 6 4 2 1 2 3 1 1 3 1 3 2 1 4 6 8 8 10 12 13 12 10 9 9 8 8 11 13 15 17 19 21 22 23 24 24 26 26 26 26 26 26 26 26 25 25 25 25 25 25 26 26 25 24 24 22 21 21 20 19 18 17 17 16 15 15 15 16 16 16 16 16 15 16 16 17 17 16 15 16 16 17 18 19 19 19 18 18 18 18 19 19 19
4 2 0 2 3 4 4 1 3 3 1 2 3 0 2 3 1 3 5 8 9 10 12 12 11 10 9 8 8 7 10 13 16 18 20 21 22 22 23 24 26 26 26 27 27 27 26 25 25 25 25 25 25 26 26 26 25 24 24 23 22 21 20 19 18 18 17 16 16 16 16 16 16 16 17 16 17 17 18 18 18 17 16 16 17 18 18 18 18 18 18 19 20 20 20 20 19
2 2 3 2 1 4 6 1 5 3 1 3 3 1 2 3 1 2 4 8 9 9 12 12 11 11 10 8 7 6 8 13 17 19 20 22 22 22 23 24 26 27 27 28 28 27 26 26 25 25 25 26 26 26 26 26 25 24 23 22 21 21 20 19 19 18 17 17 16 17 16 17 17 17 17 17 18 18 19 20 20 19 18 18 19 19 18 18 17 18 18 19 21 22 21 20 19
2 0 4 3 2 4 5 1 3 4 2 2 1 1 2 1 1 3 4 9 9 9 11 12 12 11 11 9 8 6 6 10 13 16 19 22 22 22 24 25 27 28 28 29 28 28 27 26 26 25 26 26 26 26 26 26 24 24 23 22 21 21 21 20 19 18 17 17 17 17 17 17 17 17 17 18 18 19 20 21 21 20 20 21 21 19 18 18 17 17 19 20 21 21 21 20 20
3 1 2 3 2 3 4 3 0 4 3 1 0 1 2 3 2 4 4 8 9 9 11 12 11 10 10 10 9 6 5 8 9 13 19 22 22 24 24 26 28 27 28 29 29 29 28 27 27 26 26 26 26 26 26 26 24 23 23 22 21 21 21 20 19 19 18 17 17 18 17 17 17 17 17 17 19 19 20 21 21 21 21 22 22 20 19 18 17 17 20 21 20 19 20 20 20
0 1 2 5 4 4 4 4 2 3 4 1 1 0 2 4 3 3 5 7 8 9 10 10 10 11 9 9 9 6 5 7 8 11 19 23 23 24 25 26 27 27 27 27 28 28 28 27 27 26 26 26 26 26 26 25 24 23 23 22 22 22 21 20 19 19 18 18 18 18 17 17 17 17 17 18 19 20 20 21 21 21 22 23 22 21 20 19 19 19 21 21 19 18 19 19 21
2 3 5 6 7 7 6 3 4 5 4 2 2 1 1 4 5 2 6 8 7 8 10 9 8 10 9 9 9 7 7 7 8 11 16 23 25 24 26 26 26 27 27 26 26 26 26 26 26 26 26 26 25 25 25 24 23 23 22 22 23 23 22 20 20 19 19 18 18 18 18 18 17 17 18 19 20 21 21 21 20 21 22 23 23 23 22 21 21 21 22 21 19 18 18 19 21
7 7 7 8 8 9 6 2 3 4 4 2 0 1 2 3 5 2 6 8 7 8 9 8 8 9 10 10 9 8 8 5 7 10 12 20 24 24 26 26 26 26 25 26 26 26 27 26 26 26 27 26 25 25 25 25 25 23 23 23 24 23 21 20 20 20 19 19 18 18 18 18 18 18 19 20 20 21 21 21 21 21 22 23 25 24 24 24 23 23 23 22 20 19 19 20 19
7 5 6 8 7 8 5 2 3 2 4 2 1 3 4 2 2 3 5 9 8 8 9 8 9 10 9 9 9 8 6 3 5 8 9 15 21 23 25 25 25 25 25 26 27 28 28 27 27 27 27 26 26 27 27 27 26 25 23 23 24 22 21 21 20 19 18 18 18 18 19 19 19 20 20 21 21 22 22 23 23 22 22 23 25 26 26 26 26 25 24 23 22 20 20 20 19
6 5 4 7 6 4 4 2 2 2 2 2 1 3 3 3 2 3 3 6 5 5 6 6 7 9 9 9 9 8 7 6 7 8 7 12 17 21 24 24 26 28 28 28 29 29 28 28 28 27 27 27 28 28 28 28 27 25 23 22 22 21 20 20 19 18 18 18 18 18 19 19 20 21 21 22 22 23 23 24 24 24 23 24 25 27 28 28 28 28 26 26 24 22 21 20 19
5 5 4 7 7 2 3 1 2 2 2 3 2 2 2 2 1 2 4 3 2 3 2 2 3 5 8 9 9 9 10 10 10 9 7 10 15 19 22 24 26 27 27 28 28 27 28 29 29 28 28 28 29 28 28 28 25 23 22 21 20 19 19 19 19 19 19 19 19 18 19 19 20 21 22 22 24 24 25 26 27 27 26 26 26 27 28 29 28 28 27 27 24 22 21 20 19
5 7 7 9 11 6 4 2 2 3 2 3 3 3 3 2 2 2 3 2 1 1 1 2 3 2 5 8 10 11 11 11 10 10 8 8 11 17 22 24 25 25 26 27 28 29 29 30 30 29 29 29 29 29 28 28 25 23 22 21 19 18 18 19 20 20 20 20 19 19 19 19 20 22 23 24 25 26 27 28 29 29 28 27 27 27 27 27 27 26 26 25 24 22 21 20 20
5 7 11 13 14 7 4 4 3 4 3 1 3 2 4 3 2 3 4 3 2 1 1 3 4 3 4 6 9 11 11 10 10 10 9 8 11 17 21 23 24 25 27 29 31 32 31 31 31 30 29 30 30 29 28 28 27 25 23 21 20 19 18 20 21 21 20 20 19 19 19 20 21 22 23 24 25 25 26 26 26 25 25 25 25 26 26 26 26 25 24 24 24 23 21 20 21
5 5 8 12 12 5 7 7 3 1 2 3 1 2 3 4 3 3 4 5 5 4 3 4 4 5 4 4 6 8 10 10 10 9 9 9 12 15 19 22 24 26 29 31 31 31 31 30 30 30 30 30 30 29 28 29 28 26 24 24 23 23 22 23 22 20 20 19 20 20 20 20 21 23 24 23 23 23 23 22 21 21 22 22 23 24 25 25 25 24 23 23 24 22 21 20 22
5 4 2 6 7 5 8 7 3 2 2 2 1 3 1 3 3 3 5 6 6 6 6 6 5 6 7 5 5 7 8 9 9 10 10 10 13 16 19 23 27 29 30 30 29 30 31 30 30 31 31 31 31 29 28 29 29 28 26 25 26 25 25 24 21 19 20 20 21 21 21 21 22 23 23 20 19 20 20 20 19 20 21 22 22 24 25 25 25 25 24 24 25 24 24 23 24
5 3 2 0 3 5 7 6 3 1 1 3 3 2 1 3 2 2 4 4 5 8 9 8 7 8 8 7 6 6 7 7 7 9 10 11 14 20 24 27 29 31 30 30 31 31 31 31 31 31 32 32 31 30 29 29 30 29 28 27 27 27 26 25 22 21 22 22 22 22 21 21 21 19 18 17 18 19 19 19 20 21 22 23 23 24 25 26 26 27 27 27 28 28 28 26 25
4 4 7 6 6 5 5 4 3 2 2 3 5 4 1 3 2 3 3 3 8 9 10 10 8 8 10 8 6 6 6 6 6 8 9 13 19 24 27 28 30 31 30 31 32 31 31 31 30 30 32 33 32 31 30 30 30 30 29 28 28 28 27 26 25 25 24 23 24 23 22 21 19 18 17 17 19 19 19 20 21 23 24 24 25 26 26 27 28 29 29 30 30 30 30 29 28
3 5 6 6 5 4 4 2 2 3 2 5 5 7 3 2 3 5 5 7 12 12 8 8 9 9 11 9 7 7 6 6 6 6 8 14 21 25 26 27 28 30 30 30 30 29 30 30 30 31 33 33 32 31 31 31 31 31 30 29 29 29 28 27 26 26 25 24 24 23 21 21 21 21 19 19 19 19 19 20 22 24 26 27 27 28 28 29 30 31 31 32 32 32 32 31 30
4 4 3 4 3 3 3 3 3 2 3 5 3 6 4 1 4 7 11 9 11 14 12 12 12 11 11 10 9 8 7 7 6 6 7 10 14 18 21 24 27 28 28 28 29 29 29 29 30 31 32 32 32 31 31 32 31 31 31 30 30 29 29 28 28 27 26 25 24 23 22 22 23 22 22 22 21 20 20 21 22 24 27 29 30 31 31 32 32 33 34 34 34 34 33 32 31
4 3 4 3 3 3 3 3 2 2 4 3 4 5 2 4 6 8 14 12 10 14 15 14 14 14 13 12 11 9 7 7 7 6 7 8 9 12 17 21 24 25 27 28 29 29 29 29 30 31 32 33 32 32 32 32 32 32 32 31 31 30 29 29 29 28 27 25 24 23 24 24 23 23 24 24 24 22 21 21 22 23 25 27 29 31 32 34 35 35 36 36 36 35 34 32 31
2 4 3 2 2 2 2 3 2 2 4 2 3 3 1 4 5 6 12 15 14 14 14 14 15 16 15 13 11 9 8 8 7 6 7 8 9 12 17 21 22 24 27 28 29 29 29 29 30 32 33 33 33 33 32 32 32 32 32 32 31 30 30 30 30 29 28 26 25 25 25 24 24 25 26 26 25 23 21 20 21 23 24 25 27 29 31 33 35 36 36 36 36 35 32 30 30
4 4 4 3 4 2 3 3 1 3 3 2 1 1 2 3 3 4 8 11 13 13 13 14 15 15 12 10 10 9 8 8 7 7 7 7 10 15 19 21 22 25 27 28 28 29 29 29 31 32 33 32 33 33 33 33 34 34 33 33 32 32 31 30 30 29 28 27 26 26 25 25 25 27 27 26 25 23 22 22 24 25 25 25 25 27 28 30 32 33 33 33 33 30 28 26 26
3 3 4 1 4 4 1 2 4 2 1 2 2 2 4 3 3 4 4 4 11 13 13 14 13 12 8 7 9 9 8 9 7 7 7 8 12 17 19 21 23 25 27 28 28 29 30 30 31 32 34 33 33 34 34 34 35 35 34 34 34 33 32 31 30 29 28 27 27 26 26 26 26 26 26 25 24 24 24 24 25 25 24 24 24 24 25 27 27 27 27 26 25 23 21 21 21
1 2 3 5 4 6 2 1 0 3 1 3 1 2 5 3 2 5 6 4 10 12 13 14 14 13 11 9 9 9 9 9 8 7 7 8 11 16 19 22 23 25 27 29 30 31 32 32 31 32 33 32 33 35 35 36 35 34 34 34 34 33 32 32 31 30 28 27 27 27 27 26 25 24 24 24 23 23 23 23 23 23 22 22 21 21 21 21 20 18 17 16 14 13 13 12 12
4 2 5 3 1 3 3 0 3 4 0 4 2 3 5 3 1 3 7 7 8 11 12 12 11 12 12 11 10 11 11 9 8 8 8 8 10 15 19 22 25 27 29 31 32 33 33 33 33 34 33 33 34 35 36 36 35 34 34 34 33 33 33 32 31 30 28 27 27 26 24 24 23 22 22 21 21 21 21 21 21 19 18 16 14 13 12 11 9 7 6 6 6 6 6 5 5
3 4 3 3 1 1 1 1 0 1 1 4 4 3 3 1 3 2 4 5 8 10 12 11 11 12 13 12 12 12 10 9 8 8 8 8 9 14 19 21 24 27 29 31 32 32 32 33 34 35 35 36 36 36 36 36 35 34 34 33 33 33 32 31 31 30 28 27 25 24 23 22 21 20 20 19 19 19 19 17 15 13 10 8 6 6 6 7 7 6 7 8 8 8 7 8 8
2 1 1 2 2 3 1 1 2 1 0 2 3 4 3 4 5 3 4 7 9 11 12 13 14 15 14 12 12 12 11 9 9 9 8 8 10 15 20 22 24 26 28 29 30 31 31 33 34 34 35 35 35 35 35 35 35 34 33 31 31 31 30 29 28 27 26 25 24 22 20 20 19 19 18 17 16 14 12 10 7 5 4 4 5 6 7 8 8 9 10 10 10 10 10 10 9
1 1 2 0 1 2 1 1 1 2 2 2 1 3 4 5 4 4 6 8 10 12 12 13 13 14 13 11 12 12 11 11 10 9 9 9 11 16 20 23 24 25 26 27 28 30 31 32 34 34 34 33 34 34 34 35 35 34 33 31 29 27 25 23 22 23 23 23 21 20 18 17 16 15 14 12 10 7 4 2 1 3 5 6 7 8 8 9 10 11 12 12 12 12 11 10 9
4 4 4 3 2 3 2 2 2 1 3 3 2 1 6 5 3 4 4 7 10 11 11 10 11 13 12 11 12 12 11 11 11 10 9 8 9 14 18 21 22 22 24 26 28 29 30 31 33 33 33 34 34 34 34 34 33 33 32 30 26 22 19 18 18 19 20 19 18 16 14 13 11 9 8 5 3 1 2 3 4 5 6 7 8 9 10 11 12 13 14 15 15 15 13 11 9
Wind_Direction
130 131 133 135 141 142 141 0 30 351 64 357 281 270 272 265 84 198 246 139 216 224 120 112 126 138 117 115 182 189 153 157 176 155 192 312 146 161 161 161 159 158 157 158 156 156 158 156 155 154 155 155 158 159 157 156 153 152 150 148 148 149 147 148 153 156 160 161 162 160 160 161 163 166 168 169 170 172 170 167 164 161 156 152 149 149 155 159 160 154 148 158 176 204 232 249 256
131 130 130 133 139 134 303 19 80 338 34 325 276 203 248 14 78 253 233 188 201 131 114 120 125 123 60 31 48 135 156 159 180 130 81 101 126 152 160 160 159 159 157 158 157 158 161 159 157 156 155 157 158 156 156 156 154 152 152 151 151 151 147 145 147 151 155 160 165 167 167 167 169 171 172 173 173 171 166 163 163 162 160 160 162 163 165 171 177 177 191 211 234 253 265 271 273
133 128 126 130 126 63 349 38 77 331 342 286 279 233 180 107 243 253 244 191 102 97 113 105 96 40 52 55 26 150 194 301 117 98 98 129 131 153 159 158 159 159 158 158 159 160 163 161 160 157 157 161 158 155 156 155 153 153 153 153 154 154 150 148 148 149 150 152 157 161 164 165 167 170 171 172 170 168 164 164 167 165 165 167 168 170 174 186 205 216 236 252 264 272 277 277 279
135 124 110 115 57 22 56 42 94 139 286 256 276 269 199 227 252 242 263 124 111 116 86 101 107 344 206 136 50 135 182 198 137 121 134 152 152 157 157 157 158 158 158 159 160 162 164 162 161 159 159 161 157 154 156 155 154 155 155 155 155 154 151 150 150 150 150 151 153 154 157 159 160 163 167 169 169 169 169 170 171 170 170 172 175 180 192 213 231 242 256 270 276 278 283 283 285
139 115 68 70 96 25 93 69 142 152 240 205 242 266 231 261 286 98 343 26 134 133 55 80 96 39 108 155 178 173 166 108 141 146 136 154 157 154 155 155 156 156 158 160 162 163 163 163 162 161 160 160 156 155 157 157 158 158 158 158 156 155 152 152 153 153 152 153 155 156 158 160 161 164 168 171 173 174 175 175 175 175 176 181 191 204 219 238 247 255 264 272 274 278 284 288 292
144 115 58 63 108 167 113 46 227 227 238 186 226 253 225 292 342 127 53 13 90 98 65 54 32 122 119 118 142 189 181 124 145 160 142 149 156 154 154 154 155 155 158 161 163 164 163 163 163 162 162 161 158 157 159 161 161 161 160 158 156 157 157 159 159 158 156 156 158 158 159 161 163 167 169 173 175 177 179 179 181 185 190 202 212 224 235 246 252 256 260 261 266 276 281 286 297
146 111 33 52 58 19 109 247 240 245 252 188 207 241 209 90 93 123 85 19 37 87 85 55 354 90 143 135 119 334 201 145 144 158 151 150 154 154 154 154 154 154 158 162 163 164 163 163 165 163 163 164 160 159 162 163 165 164 164 163 161 161 164 168 167 166 163 161 161 162 163 164 166 169 171 173 176 179 181 184 191 200 210 219 222 230 240 246 249 248 250 255 262 273 280 290 300
107 53 15 66 38 9 112 258 250 217 250 213 219 241 210 143 122 118 96 45 7 101 97 54 324 324 248 11 80 13 63 129 144 150 150 149 152 153 154 154 153 155 159 162 163 163 163 165 166 165 165 166 163 164 166 167 168 168 169 167 165 168 171 173 174 174 171 168 167 168 169 170 173 175 177 179 183 185 188 196 203 213 217 221 225 232 241 246 251 253 258 261 266 275 282 292 298
42 41 58 69 81 340 256 266 266 231 248 250 254 254 215 153 145 124 136 201 6 19 94 117 288 285 246 46 84 64 79 119 133 139 146 149 150 152 154 155 155 156 160 162 163 163 163 166 168 167 168 169 171 173 175 176 178 178 177 174 172 175 177 177 179 180 178 176 174 175 176 176 180 182 186 188 191 194 198 206 209 215 216 224 232 237 246 254 261 261 265 266 271 278 284 291 295
26 27 106 61 83 319 296 261 260 255 253 255 265 254 186 157 161 137 140 175 2 3 111 134 236 272 334 63 63 90 116 128 129 133 144 147 149 151 153 156 158 158 160 161 163 164 164 167 168 169 171 175 178 180 183 185 190 190 186 181 181 184 183 181 181 184 183 183 180 181 181 181 185 186 192 194 196 199 203 207 209 216 221 231 239 245 253 257 262 262 267 269 274 280 285 292 297
27 358 90 71 30 297 265 254 266 273 281 286 286 269 171 148 150 139 127 97 354 332 30 119 176 223 112 68 25 112 126 132 132 136 143 146 148 151 153 155 158 159 159 161 163 164 164 167 169 171 175 179 183 183 183 186 193 193 189 185 186 189 189 185 183 185 186 187 186 186 187 189 193 194 197 201 201 202 204 208 213 220 229 239 245 252 256 257 262 265 270 274 278 283 289 294 299
74 325 55 76 232 214 239 261 283 292 303 306 302 328 98 132 143 154 143 128 141 250 274 200 174 90 81 53 135 124 127 132 135 140 144 147 149 151 153 154 157 158 159 161 162 164 166 168 170 174 179 182 184 184 183 185 191 191 187 185 188 190 189 187 186 186 187 190 192 193 195 197 201 203 206 208 206 208 208 214 220 228 237 245 251 254 257 260 265 269 273 278 282 287 291 295 299
111 153 78 123 213 198 262 273 288 313 317 297 281 301 107 137 160 165 148 140 142 160 235 224 274 10 60 86 133 134 131 134 138 142 146 148 150 151 152 153 156 158 160 162 163 165 168 170 173 177 181 184 183 184 191 194 192 189 186 188 189 188 187 187 187 189 190 192 195 198 200 204 209 209 213 214 214 218 219 223 228 235 242 248 254 255 261 265 269 272 274 280 284 288 291 294 298
135 152 107 270 293 270 266 261 288 339 297 273 282 231 165 160 166 143 134 130 125 143 217 228 185 115 215 169 142 151 137 140 142 143 149 151 151 151 152 153 155 158 161 163 165 167 169 172 175 178 181 183 184 187 197 199 191 187 189 191 190 187 187 189 188 190 191 192 195 199 202 205 209 210 213 216 219 224 225 230 233 238 244 249 255 258 263 266 267 270 273 279 284 287 290 292 294
146 152 114 254 298 306 247 230 238 90 265 263 264 201 186 234 144 115 112 113 120 162 198 201 160 127 201 208 162 158 144 145 145 141 145 150 151 150 152 154 156 159 161 164 166 169 171 173 176 180 182 183 190 194 198 195 187 190 194 194 192 188 187 191 191 191 192 193 195 198 203 206 208 212 214 219 224 227 230 236 239 240 245 249 253 258 261 264 265 268 273 279 282 285 288 290 291
140 126 90 270 272 281 226 216 139 112 260 245 231 195 126 298 85 84 82 106 125 163 90 129 284 136 186 221 142 141 144 147 146 142 139 141 147 148 150 154 156 160 163 165 167 170 173 175 179 182 183 186 193 197 198 192 189 195 197 195 193 189 189 193 194 194 194 196 200 201 206 209 212 216 217 225 229 230 235 241 245 245 247 250 252 256 259 262 266 270 276 281 284 284 284 287 289
107 88 123 267 241 237 214 200 185 192 260 253 242 218 109 304 29 81 73 75 110 127 68 49 341 330 170 140 136 139 142 146 146 143 138 137 142 144 149 154 158 162 166 169 169 171 174 177 182 183 185 190 194 199 199 193 194 197 196 197 193 192 194 195 196 196 198 200 203 204 209 215 219 220 219 225 229 230 236 243 250 251 253 255 257 261 264 267 271 276 279 280 281 283 285 287 286
180 124 187 254 221 222 199 193 195 191 256 196 202 211 158 249 169 131 117 86 111 118 93 56 53 19 86 130 137 140 142 147 146 143 141 141 144 146 152 158 161 165 168 171 172 173 175 179 183 184 187 193 195 201 200 195 198 197 197 198 192 196 198 197 199 199 202 203 204 207 211 218 223 225 225 229 232 231 237 245 253 258 261 264 265 267 270 273 276 277 277 278 280 285 289 288 288
196 186 206 243 216 224 210 200 196 197 237 164 177 215 189 223 159 146 158 136 149 129 112 150 94 91 113 129 137 143 146 148 147 144 146 150 153 154 156 162 165 169 170 172 174 175 177 180 184 186 189 194 198 202 199 197 201 198 197 197 196 200 200 200 203 202 206 206 206 211 214 220 226 229 231 235 240 243 246 251 256 261 266 269 272 273 274 275 275 276 276 279 283 287 288 290 295
193 192 237 248 227 247 249 218 219 221 235 153 173 216 204 222 138 147 180 153 177 175 167 172 148 145 147 140 142 149 148 146 147 147 151 156 159 161 161 165 169 173 174 174 174 176 180 183 185 188 190 194 199 200 199 202 203 201 198 198 202 203 201 203 204 206 210 209 211 216 219 224 230 235 238 239 242 248 250 251 255 260 262 264 268 272 273 274 273 274 276 279 284 288 291 295 300
165 190 225 243 203 253 256 218 229 228 210 184 147 193 245 219 148 172 170 161 199 201 188 178 164 162 156 152 151 153 148 145 151 152 155 160 161 165 167 168 173 175 174 174 174 177 181 185 188 190 191 195 198 198 201 205 203 202 202 202 205 206 204 204 205 210 212 212 216 220 224 228 235 242 246 247 246 249 251 251 254 257 261 261 262 265 269 271 273 274 278 282 285 290 293 297 301
189 222 235 250 210 254 268 227 222 201 151 174 157 220 246 140 152 187 190 183 225 220 198 183 165 162 159 157 156 154 150 149 156 157 159 164 164 165 167 169 173 174 174 175 177 179 183 186 190 191 191 195 198 197 202 206 204 203 204 205 208 209 208 207 208 212 215 217 220 225 229 231 237 244 248 250 249 251 256 257 257 259 262 264 264 268 270 273 276 279 282 285 288 291 293 297 300
230 245 243 252 234 242 268 246 190 153 143 191 191 216 163 117 191 190 202 190 348 295 195 168 166 163 158 156 155 157 156 154 160 162 163 165 166 166 167 170 174 175 176 178 180 182 186 187 190 192 193 195 198 199 201 204 206 208 207 208 212 212 211 211 212 215 218 221 225 230 234 236 238 242 247 247 247 251 256 259 260 262 264 264 267 272 273 274 276 280 284 287 290 293 295 299 302
229 263 262 259 240 235 253 258 222 166 179 202 160 154 158 193 219 148 210 166 91 353 74 131 158 158 158 158 159 161 159 158 162 165 167 168 169 169 169 172 175 176 176 179 182 184 188 190 191 192 193 195 198 201 203 205 208 210 211 212 214 215 216 215 216 219 222 225 229 233 237 240 240 242 245 247 249 254 258 263 265 266 266 267 270 273 274 275 278 282 287 290 293 296 299 301 304
219 246 261 268 248 245 259 263 239 190 191 185 133 203 212 192 154 135 212 165 135 125 99 133 149 156 167 164 160 161 160 161 162 163 168 172 170 168 170 172 175 177 178 181 183 185 190 193 194 195 194 196 199 202 205 208 210 212 214 215 216 217 220 220 220 222 224 227 230 233 237 239 240 243 245 248 254 260 265 271 273 270 269 269 272 272 274 279 284 288 292 294 297 300 301 304 307
214 231 257 273 272 273 278 269 232 184 176 153 169 241 233 169 185 222 206 165 147 136 137 157 155 162 176 168 162 163 162 163 164 164 167 170 168 167 171 173 176 180 181 182 185 188 191 194 197 197 197 198 200 203 207 210 212 214 216 217 218 219 221 222 222 224 225 227 229 231 235 238 240 242 246 251 258 266 273 276 276 274 271 270 272 274 277 283 289 293 296 298 299 300 301 304 307
208 227 256 256 270 283 273 268 261 127 145 159 183 256 225 171 205 246 180 156 142 135 150 167 164 165 174 172 165 164 165 166 166 164 164 167 170 172 174 176 179 182 182 183 187 190 192 196 199 199 200 201 202 204 208 211 213 215 217 218 219 221 222 223 224 226 227 228 230 232 234 237 239 243 249 255 262 270 277 278 278 277 275 273 274 278 282 287 292 295 296 297 298 299 301 303 307
252 260 284 266 273 288 251 252 291 112 124 157 168 254 249 180 205 187 156 154 142 140 153 172 173 167 172 171 164 164 164 166 166 165 166 170 174 176 178 180 182 182 183 185 187 190 193 198 200 200 202 204 204 206 209 212 214 216 218 220 221 223 224 226 227 227 229 231 233 235 235 237 241 247 253 257 264 271 277 280 281 280 277 276 278 281 287 291 294 296 296 297 298 299 301 304 307
277 292 301 292 319 312 255 211 266 117 102 159 149 274 289 206 199 152 154 154 145 145 154 172 179 171 172 167 163 164 161 166 169 171 173 174 177 178 180 184 183 182 186 187 187 191 196 199 200 202 203 205 207 209 212 214 217 218 220 222 223 225 226 228 230 230 232 234 236 238 239 241 245 249 253 259 265 271 277 282 284 282 280 279 281 284 288 292 294 295 296 297 299 300 302 306 309
282 262 259 302 341 324 273 95 86 99 75 135 117 7 306 282 206 143 157 155 145 148 158 174 177 168 170 165 159 161 163 170 176 178 177 176 178 180 181 184 184 183 184 185 187 192 197 199 200 202 204 207 210 212 215 217 219 221 223 225 226 227 228 230 232 233 235 237 238 240 242 244 246 248 253 260 265 271 277 282 285 284 283 284 286 289 290 292 292 293 295 297 299 300 302 307 307
291 295 203 319 340 296 290 120 123 101 16 37 71 45 278 289 273 166 170 157 149 155 163 174 177 166 166 163 156 162 168 175 181 181 179 177 180 181 181 183 185 184 182 184 190 193 197 199 199 201 204 208 211 214 216 219 221 223 224 226 227 230 230 232 235 236 237 238 240 242 242 243 244 248 253 259 265 270 275 280 284 286 289 291 294 296 294 292 291 291 295 297 298 299 301 304 302
303 296 304 326 228 274 305 242 153 130 16 36 65 139 258 256 238 240 186 159 159 164 164 173 177 167 161 156 159 170 172 176 183 184 182 180 181 182 182 184 185 186 185 186 190 193 196 199 199 201 205 208 211 215 217 220 222 224 226 227 229 231 232 235 237 238 241 242 244 243 241 242 245 249 252 259 265 269 274 278 282 286 290 293 297 299 294 291 292 293 296 298 297 297 299 300 298
343 254 274 296 277 297 327 313 160 130 108 30 45 191 282 270 223 266 193 164 169 167 162 173 176 167 158 154 166 175 164 173 183 187 185 182 184 185 184 186 187 187 187 187 189 191 194 197 199 201 204 208 212 215 218 220 222 225 227 228 230 233 235 238 239 242 244 244 246 244 242 244 247 251 254 260 266 269 274 278 281 284 287 290 295 296 291 291 294 295 300 303 297 291 294 296 296
319 354 268 271 271 289 316 317 191 100 85 334 270 198 296 319 263 248 190 165 174 163 156 170 174 168 161 158 169 172 161 174 184 189 186 183 186 188 187 190 190 189 189 189 190 192 193 195 198 201 205 209 212 214 217 220 223 226 228 230 232 235 237 240 243 245 246 246 247 246 246 248 251 254 257 262 267 270 274 276 277 279 283 286 289 292 291 291 293 295 302 309 302 291 290 291 294
223 19 326 300 292 267 276 291 208 104 63 30 29 330 310 335 311 239 179 161 169 161 154 167 172 169 168 167 173 173 172 184 188 190 187 184 186 189 190 191 191 190 190 191 192 193 193 194 198 201 204 208 211 214 216 219 223 226 229 232 234 237 240 242 243 245 246 246 247 247 248 251 254 257 259 264 268 272 274 275 276 277 280 282 283 285 287 288 290 292 299 309 308 297 291 289 290
299 302 313 302 300 287 272 259 202 133 82 34 21 342 324 355 340 246 169 157 156 154 154 163 168 170 175 179 180 178 186 196 192 190 187 185 188 190 191 192 191 191 191 192 192 193 193 194 197 200 203 208 209 210 213 215 220 223 227 230 233 236 238 240 242 244 246 247 248 249 250 252 255 258 261 265 269 272 275 276 277 277 277 277 277 278 281 284 287 289 293 300 305 300 291 286 287
295 299 300 288 286 289 285 230 196 130 92 322 292 48 6 19 350 340 159 156 147 146 152 160 166 175 184 185 185 186 191 204 196 192 188 187 189 190 191 192 191 190 191 192 191 194 196 196 198 200 204 206 206 207 209 212 215 218 222 226 231 233 234 237 239 242 245 247 249 250 252 254 256 259 261 263 267 270 273 275 277 276 275 273 272 273 277 280 282 284 287 289 295 298 291 286 286
276 277 291 292 276 274 286 160 176 101 83 282 195 63 5 9 354 357 140 150 147 149 156 163 168 179 189 186 188 193 190 202 209 201 194 190 190 190 190 189 189 189 191 193 195 196 198 199 201 203 204 204 207 209 210 213 216 218 220 223 228 230 231 234 237 240 244 249 253 254 256 257 259 261 262 264 266 268 271 274 275 275 274 272 270 271 274 277 279 281 283 284 287 291 290 287 283
257 264 281 286 276 281 316 83 101 36 83 235 206 83 344 309 0 16 102 139 141 135 148 166 172 177 187 187 186 194 190 193 211 213 203 194 191 188 187 187 190 193 193 196 198 198 198 200 204 205 204 205 208 211 213 215 219 221 222 224 226 229 231 234 239 244 250 255 258 259 260 261 262 263 264 265 266 268 271 274 275 277 277 274 272 271 273 275 277 279 280 281 283 284 285 286 283
243 252 262 270 275 275 295 313 79 35 101 173 154 101 309 294 29 51 75 105 106 73 105 190 197 173 180 185 186 193 194 192 203 213 210 197 191 186 184 187 191 193 194 197 198 198 199 202 205 206 206 208 210 212 216 218 220 221 224 227 230 233 236 239 245 249 253 256 258 259 260 262 264 266 267 267 268 270 272 274 277 278 278 277 274 274 275 278 280 281 280 280 279 277 278 283 285
246 235 230 253 265 243 227 223 112 41 36 138 115 43 319 258 206 158 100 84 11 53 94 237 248 190 163 172 183 196 200 194 198 208 210 199 189 186 188 190 190 191 194 197 199 200 201 204 207 207 208 210 212 215 217 218 219 220 222 227 232 237 240 243 247 250 252 254 256 258 261 265 269 272 273 273 272 273 275 277 278 279 279 277 276 276 279 283 284 282 281 280 277 273 273 279 284
283 243 221 234 254 246 156 136 108 32 341 228 113 40 301 279 233 194 130 134 210 189 187 229 230 211 169 163 176 193 203 202 201 206 207 202 192 189 192 192 189 192 197 200 202 203 204 206 207 208 209 211 214 216 217 216 217 218 219 222 226 232 238 242 245 249 252 255 258 264 269 273 277 279 282 281 278 278 280 281 279 278 278 277 276 277 279 281 281 281 282 282 280 277 274 275 279
296 256 211 223 240 221 146 146 132 59 271 267 116 135 266 295 266 204 143 157 203 209 213 221 220 212 196 177 169 182 197 202 205 208 206 204 196 190 192 193 191 195 200 202 203 204 205 206 208 209 211 213 215 216 216 216 217 218 220 223 227 229 235 242 246 250 255 258 263 269 274 277 281 285 287 287 284 283 285 282 276 273 274 275 276 276 276 276 277 279 281 283 283 282 277 271 276
262 276 223 220 219 179 151 144 129 188 228 316 322 130 142 291 273 202 148 157 202 226 232 225 215 213 208 197 180 176 187 193 199 205 208 207 200 194 193 194 196 199 201 201 202 204 205 206 208 210 212 214 216 216 216 217 217 218 221 225 229 232 237 243 246 250 255 260 265 269 274 280 285 286 286 285 284 285 286 280 273 271 272 273 274 274 275 275 276 277 279 280 281 281 278 274 277
259 322 32 164 152 137 136 125 118 172 27 318 265 144 116 272 275 149 147 168 210 225 229 225 213 209 211 208 193 181 183 186 188 196 203 206 202 199 196 196 199 201 201 200 202 204 205 207 209 210 213 215 215 215 216 218 218 219 221 225 230 234 239 244 247 251 255 259 265 269 274 281 289 289 283 282 284 285 284 278 272 271 271 272 273 274 274 275 276 276 277 279 280 280 280 277 276
258 58 71 67 78 99 102 113 122 74 20 282 234 172 146 278 232 157 148 202 217 219 223 222 216 207 208 211 203 191 187 185 189 191 194 200 202 202 199 197 199 200 200 201 203 203 204 206 208 210 213 215 215 215 217 218 219 220 222 225 230 235 239 243 246 249 253 257 263 267 272 279 291 296 288 284 286 286 283 278 273 272 273 274 274 274 275 276 277 278 280 281 281 282 282 280 276
175 77 75 65 58 64 56 71 92 63 307 275 225 179 154 304 242 185 190 207 201 202 213 217 218 213 206 208 205 198 192 186 189 189 190 196 201 201 198 196 198 200 200 201 202 202 203 205 206 210 215 216 215 215 217 220 220 221 224 227 231 235 239 241 243 247 251 255 260 265 271 277 286 293 292 286 283 284 284 282 279 277 277 277 277 277 278 279 281 282 283 283 283 283 283 282 279
113 77 86 73 17 13 26 357 30 77 262 280 222 168 139 283 254 208 217 223 190 188 201 205 211 213 206 206 206 201 194 188 184 183 188 191 196 199 196 195 197 197 198 199 200 201 202 204 206 210 214 215 216 216 217 220 221 223 226 228 232 236 238 240 242 246 249 253 258 264 270 275 279 286 288 285 282 284 289 289 287 285 283 282 281 281 281 282 283 283 283 284 284 283 283 282 280
77 88 83 64 357 1 13 322 348 197 253 273 161 148 136 239 246 219 218 223 196 186 193 194 202 209 205 205 206 200 192 188 186 181 183 183 187 194 195 195 194 194 196 198 199 200 201 204 206 210 213 215 216 217 218 220 222 225 227 229 232 236 238 240 243 247 249 251 256 262 268 273 277 282 286 286 285 288 293 295 294 293 291 290 287 285 283 283 283 283 283 283 282 282 282 281 280
135 146 127 107 99 36 328 284 309 275 282 306 155 171 287 276 264 220 211 216 201 183 180 185 199 207 203 200 199 196 190 188 190 187 182 182 184 187 193 196 193 193 196 198 198 200 200 203 206 210 214 216 216 217 219 221 223 226 229 230 233 236 238 241 243 246 249 251 255 261 268 273 277 282 287 288 288 289 294 298 301 300 299 297 293 289 287 286 285 284 284 283 283 283 283 283 282
189 169 141 144 152 157 258 241 242 274 287 342 27 203 233 269 270 229 222 217 194 177 173 179 201 211 201 193 192 192 191 189 193 191 184 183 184 185 192 196 193 194 196 197 199 200 200 202 205 209 213 215 216 218 219 221 224 228 229 231 233 236 239 242 245 248 250 252 256 261 268 274 277 282 287 288 288 292 298 303 304 304 303 301 298 295 293 291 290 288 287 286 286 287 287 285 283
241 144 111 217 194 161 225 206 180 189 251 283 293 238 226 234 279 311 307 201 172 172 170 172 194 207 194 192 195 191 193 194 193 192 188 186 184 185 190 195 196 195 196 197 199 200 201 203 205 209 214 215 216 218 221 224 227 228 229 231 233 235 238 242 245 249 252 254 257 262 268 273 276 281 286 289 293 298 303 305 305 305 305 303 299 295 292 290 289 288 288 289 290 291 291 288 286
251 123 179 242 191 126 111 247 179 73 70 269 270 277 289 319 342 343 12 95 149 161 166 169 185 192 187 196 199 192 196 196 191 189 189 186 184 185 188 192 195 195 196 198 200 201 203 204 205 209 213 215 217 219 223 226 228 229 230 232 234 235 238 242 246 249 253 255 259 263 268 273 277 285 291 296 300 304 306 306 304 302 300 297 294 292 291 291 291 291 292 295 300 303 301 297 293
130 186 216 220 132 91 103 170 355 40 223 283 320 274 295 350 338 343 42 84 139 159 166 169 174 182 190 199 199 196 195 190 189 189 189 188 185 185 187 190 194 195 196 199 201 203 204 205 206 209 212 215 218 221 225 227 228 229 231 233 235 237 240 243 247 250 253 257 261 265 270 276 284 294 300 304 306 306 305 303 300 299 297 295 297 300 305 312 315 321 329 338 350 350 344 346 346
153 191 184 132 152 254 55 127 243 28 300 298 316 297 278 211 242 304 81 125 157 162 166 167 172 184 194 199 197 197 191 185 188 190 191 189 185 186 186 189 194 195 196 199 201 203 204 206 208 210 213 216 220 223 226 228 229 230 232 234 236 238 241 244 247 250 253 257 262 267 274 282 293 301 304 305 305 303 301 299 299 301 303 309 322 336 353 6 14 26 34 36 38 34 32 37 36
64 126 116 74 141 174 183 152 172 163 196 270 313 332 293 229 226 203 174 174 167 166 170 176 182 188 193 195 192 191 188 187 190 191 191 188 186 189 188 189 192 194 196 198 199 201 203 205 208 210 214 217 220 224 226 228 230 231 233 235 237 239 242 244 246 248 252 256 262 269 278 289 298 301 301 301 300 298 296 297 302 316 346 14 24 27 28 27 29 33 34 36 37 33 33 35 30
97 208 219 322 58 151 180 0 90 127 146 184 300 320 277 250 212 188 190 179 173 178 180 183 186 187 191 192 188 187 187 188 190 190 189 187 187 189 190 191 192 193 195 196 197 199 201 204 206 209 212 215 219 223 226 229 231 232 234 236 238 241 242 244 245 248 252 258 265 274 284 293 295 293 293 292 290 289 290 303 25 51 50 47 40 34 29 24 24 26 25 22 18 15 20 21 13
162 193 203 183 144 123 124 303 311 87 130 168 165 242 272 262 191 181 184 173 180 186 185 187 185 183 187 190 187 186 186 188 191 189 186 183 185 188 189 190 190 190 193 195 197 198 200 202 205 208 211 215 219 223 227 230 231 233 235 237 238 240 244 246 247 251 257 262 268 277 283 286 282 276 274 270 253 192 118 97 77 63 53 45 35 26 21 16 14 14 12 9 5 3 7 9 4